Regional Weather Roundup
Issued by NWS

Home | Current Version | Previous Version | Graphics & Text | Print | Product List | Glossary On
Versions: 1 2 3 4 5 6 7 8 9 10 11 12 13 14 15 16 17 18 19 20 21 22 23 24 25 26 27 28 29 30 31 32 33 34 35 36 37 38 39 40 41 42 43 44 45 46 47 48 49 50
000
ASUS43 KOAX 181702
RWRNE

WEATHER ROUNDUP FOR NEBRASKA
NATIONAL WEATHER SERVICE OMAHA NE
1100 AM CST WED JAN 18 2017

NOTES: SATELLITE DATA IS BEING USED TO AUGMENT CLOUD COVER ABOVE
       12000 FEET.
       "FAIR" INDICATES FEW OR NO CLOUDS BELOW 12,000 FEET WITH NO
       SIGNIFICANT WEATHER AND/OR OBSTRUCTIONS TO VISIBILITY.

  * THESE STATIONS DO NOT REPORT WEATHER SUCH AS RAIN...SNOW OR FOG.

NEZ001>004-019>022-054>056-181800-
NEBRASKA PANHANDLE

CITY           SKY/WX    TMP DP  RH WIND       PRES   REMARKS
SCOTTSBLUFF    CLOUDY    37  19  48 NW9       29.87F WCI  30
ALLIANCE       CLOUDY    41  21  44 W10       29.84F
CHADRON        CLOUDY    29  17  61 S3        29.84R
KIMBALL        CLOUDY    37  25  63 W9        29.89F WCI  30
SIDNEY         CLOUDY    39  23  52 W13       29.89S WCI  31
$$

NEZ057>060-069>072-079>082-181800-
SOUTHWEST NEBRASKA

CITY           SKY/WX    TMP DP  RH WIND       PRES   REMARKS
NORTH PLATTE   SUNNY     33  26  75 W6        29.92F WCI  28
IMPERIAL       CLOUDY    32  24  72 W3        29.91F
LEXINGTON      SUNNY     37  31  81 CALM      29.94R
MCCOOK         MOSUNNY   33  29  85 SW7       29.95R WCI  27
OGALLALA       SUNNY     32  26  79 SW7       29.91F WCI  25
$$

NEZ005>010-023>029-035>040-094-181800-
NORTH CENTRAL NEBRASKA

CITY           SKY/WX    TMP DP  RH WIND       PRES   REMARKS
VALENTINE      SUNNY     40  22  48 SW7       29.83F
AINSWORTH      CLOUDY    39  26  59 S7        29.85R WCI  34
BROKEN BOW     SUNNY     36  28  73 S7        29.90F WCI  30
O`NEILL        CLOUDY    42  32  68 S9        29.88S
ORD            SUNNY     37  29  72 S15       29.90F WCI  28
THEDFORD       MOSUNNY   43  25  48 W5        29.87S
$$

NEZ041-046>049-061>064-073>077-083>087-181800-
SOUTH CENTRAL NEBRASKA

CITY           SKY/WX    TMP DP  RH WIND       PRES   REMARKS
GRAND ISLAND   SUNNY     41  35  79 S12       29.97R
AURORA         SUNNY     39  34  81 S13       29.99R WCI  32
HASTINGS       CLOUDY    40  32  73 S9        30.00R WCI  34
HEBRON         MOSUNNY   43  37  77 S5        30.03F
HOLDREGE       CLOUDY    36  32  85 SW5       29.96F WCI  32
KEARNEY *      SUNNY     37  32  81 S15       29.96S WCI  28
YORK           SUNNY     39  34  81 S10       30.01R WCI  32
$$

NEZ011>018-030>034-042>045-181800-
NORTHEAST NEBRASKA

CITY           SKY/WX    TMP DP  RH WIND       PRES   REMARKS
NORFOLK        SUNNY     38  33  82 S16       29.92F WCI  29
ALBION         SUNNY     38  32  79 S7        29.93S WCI  33
BLAIR          SUNNY     39  35  86 S12       30.00F WCI  31
FREMONT        SUNNY     40  35  83 S6        30.00F
TEKAMAH        SUNNY     38  33  82 S12       29.99F WCI  30
WAYNE          SUNNY     40  35  84 SW14      29.92S WCI  32
$$

NEZ050>053-065>068-078-088>093-181800-
SOUTHEAST NEBRASKA

CITY           SKY/WX    TMP DP  RH WIND       PRES   REMARKS
LINCOLN        SUNNY     41  34  76 S10       30.04S
OMAHA EPPLEY   MOSUNNY   37  32  82 S12       30.03F WCI  29
BEATRICE       SUNNY     39  34  83 S7        30.04F WCI  34
FALLS CITY     SUNNY     39  34  82 S10       30.08F WCI  32
NEBRASKA CITY  SUNNY     38  33  82 S8        30.04F WCI  32
PLATTSMOUTH    SUNNY     38  32  79 S9        30.04S WCI  31
$$

NEZ044-045-051>053-067-181800-
OMAHA AREA

CITY           SKY/WX    TMP DP  RH WIND       PRES   REMARKS
OMAHA EPPLEY   MOSUNNY   37  32  82 S12       30.03F WCI  29
BLAIR          SUNNY     39  35  86 S12       30.00F WCI  31
FREMONT        SUNNY     40  35  83 S6        30.00F
MILLARD        SUNNY     42  35  76 S6        30.03F
OFFUTT AFB     SUNNY     37  37 100 SE7       30.03F WCI  31
PLATTSMOUTH    SUNNY     38  32  79 S9        30.04S WCI  31
WAHOO          FAIR      39  34  82 S9        30.01F WCI  33
$$




USA.gov is the U.S. government's official web portal to all federal, state and local government web resources and services.